Location: Aix-en-Ergny
(50.5839°N, 1.9996°E)
Time: 05:09:12
(UTC+00:00)

Cosmos 2333 Rocket - Pass Details

Date: 23 October 2019
Orbit: 838 x 864 km, 70.8° (Epoch: 14 November)

Event Time Altitude Azimuth Distance (km) Brightness Sun altitude
Exits shadow 01:57:56 21° 60° (ENE) 1,812 4.4 -41.2°
Drops below altitude 10° 02:00:09 10° 44° (NE) 2,489 5.3 -40.9°
Sets 02:02:49 0° 36° (NE) 3,434 6.2 -40.6°
